Location: ?????????
(54.7630°N, 39.4991°E)
Time: 11:32:30
(UTC+00:00)

USA 229 - Pass Details

Date: 14 April 2026
Orbit: 843 x 1365 km, 63.4° (Epoch: 10 January)

Event Time Altitude Azimuth Distance (km) Brightness Sun altitude
Rises 21:51:19 0° 307° (NW) 3,863 7.0 -25.3°
Reaches altitude 10° 21:53:51 10° 309° (NW) 2,977 6.4 -25.2°
Maximum altitude 22:01:04 78° 36° (NE) 1,244 4.0 -25.1°
Drops below altitude 10° 22:09:10 10° 124° (ESE) 3,324 6.1 -24.8°
Sets 22:12:08 0° 126° (SE) 4,336 6.7 -24.7°
